Location: Moscow
(38.8570°N, 84.2291°W)
Time: 16:24:01
(UTC+00:00)

COSMO-SKYMED 1 - Pass Details

Date: 15 November 2025
Orbit: 579 x 581 km, 97.9° (Epoch: 06 December)

Event Time Altitude Azimuth Distance (km) Brightness Sun altitude
Exits shadow 23:35:54 - 24° (NNE) 1,969 4.8 -14.3°
Reaches altitude 10° 23:36:04 10° 24° (NNE) 1,901 4.7 -14.4°
Maximum altitude 23:40:03 48° 99° (E) 766 2.6 -15.1°
Drops below altitude 10° 23:44:00 10° 175° (S) 1,886 5.1 -15.9°
Sets 23:46:12 0° 181° (S) 2,780 6.1 -16.3°
